DL8JF-13 Weather Reports


Display with metric or nautical units.
time (UTC)temp
F
wind
direction
speed
MPH
gust
MPH
rain 1hr
in
rain 24hr
in
rain mn
in
humidity
%
barometer
mb
20260505093349 51 0 0.0 0.0 0.00 0.05 0.00 97 1005.5
20260505091849 50 0 0.0 0.0 0.00 0.05 0.00 97 1005.6
20260505090352 50 0 0.0 0.0 0.00 0.05 0.00 97 1005.6
20260505084849 50 0 0.0 0.0 0.00 0.05 0.00 98 1005.2
20260505083353 50 0 0.0 0.0 0.00 0.05 0.00 98 1005.1
20260505081849 50 0 0.0 0.0 0.00 0.05 0.00 98 1005.1
20260505080352 50 0 0.0 0.0 0.00 0.05 0.00 98 1005.1
20260505074849 50 0 0.0 0.0 0.00 0.05 0.00 98 1004.9
20260505073349 50 0 0.0 0.0 0.00 0.05 0.00 98 1005.0
20260505071849 49 0 0.0 0.0 0.00 0.05 0.00 97 1005.1
20260505070352 49 0 0.0 0.0 0.00 0.05 0.00 97 1005.1
20260505064849 49 0 0.0 0.0 0.00 0.05 0.00 97 1005.0
20260505063352 49 0 0.0 0.0 0.00 0.05 0.00 97 1005.3
20260505061849 49 0 0.0 0.0 0.00 0.05 0.00 97 1005.2
20260505060349 49 0 0.0 0.0 0.00 0.05 0.00 96 1005.2
20260505054849 49 0 0.0 0.0 0.00 0.05 0.00 96 1005.1
20260505053352 49 0 0.0 0.0 0.00 0.05 0.00 95 1005.2
20260505051849 49 0 0.0 0.0 0.00 0.05 0.00 94 1005.2
20260505050349 49 0 0.0 0.0 0.00 0.05 0.00 93 1005.2
20260505040349 49 0 0.0 0.0 0.02 0.05 0.00 86 1005.4
20260505034852 49 0 0.0 0.0 0.05 0.05 0.00 86 1005.2
20260505033349 49 0 0.0 0.0 0.02 0.02 0.00 85 1005.4
20260505031852 49 0 0.0 0.0 0.02 0.02 0.00 84 1005.0
20260505030352 50 0 0.0 0.0 0.02 0.02 0.00 83 1005.0
20260505024849 50 0 0.0 0.0 0.00 0.00 0.00 82 1004.9
20260505023349 51 0 0.0 0.0 0.00 0.00 0.00 81 1005.7
20260505021852 51 0 0.0 0.0 0.00 0.00 0.00 81 1005.6
20260505020352 51 0 0.0 0.0 0.00 0.00 0.00 79 1005.6
20260505014852 51 0 0.0 0.0 0.00 0.00 0.00 79 1005.6
20260505013352 51 0 0.0 0.0 0.00 0.00 0.00 77 1005.7
20260505011852 52 0 0.0 0.0 0.00 0.00 0.00 76 1005.9
20260505010352 52 0 0.0 0.0 0.00 0.00 0.00 75 1005.9
20260505004852 52 0 0.0 0.0 0.00 0.00 0.00 74 1006.2
20260505003352 52 0 0.0 0.0 0.00 0.00 0.00 75 1006.1
20260505001852 52 0 0.0 0.0 0.00 0.00 0.00 74 1006.3
20260505000352 53 0 0.0 0.0 0.00 0.00 0.00 74 1006.3
20260504234849 53 0 0.0 0.0 0.00 0.00 0.00 73 1006.4
20260504233352 53 0 0.0 0.0 0.00 0.00 0.00 73 1006.5
20260504231849 53 0 0.0 0.0 0.00 0.00 0.00 73 1006.8
20260504230349 54 0 0.0 0.0 0.00 0.00 0.00 72 1006.8
20260504224852 54 0 0.0 0.0 0.00 0.00 0.00 73 1006.7
20260504223352 54 0 0.0 0.0 0.00 0.00 0.00 72 1007.0
20260504221849 54 0 0.0 0.0 0.00 0.00 0.00 72 1007.0
20260504220352 55 0 0.0 0.0 0.00 0.00 0.00 71 1007.0
20260504214852 55 0 0.0 0.0 0.00 0.00 0.00 71 1007.0
20260504213349 55 0 0.0 0.0 0.00 0.00 0.00 72 1006.9
20260504211849 55 0 0.0 0.0 0.00 0.00 0.00 71 1006.9
20260504210352 55 0 0.0 0.0 0.00 0.00 0.00 70 1006.9
20260504204849 56 0 0.0 0.0 0.00 0.00 0.00 69 1007.2
20260504203349 57 0 0.0 0.0 0.00 0.00 0.00 68 1007.0
20260504201849 57 0 0.0 0.0 0.00 0.00 0.00 67 1006.7
20260504200349 58 0 0.0 0.0 0.00 0.00 0.00 66 1006.7
20260504194848 58 0 0.0 0.0 0.00 0.00 0.00 65 1006.7
20260504193351 59 0 0.0 0.0 0.00 0.00 0.00 64 1006.7
20260504191852 60 0 0.0 0.0 0.00 0.00 0.00 63 1006.7
20260504190348 60 0 0.0 0.0 0.00 0.00 0.00 63 1006.7
20260504184851 61 0 0.0 0.0 0.00 0.00 0.00 61 1006.6
20260504183352 62 0 0.0 0.0 0.00 0.00 0.00 60 1006.5
20260504181849 62 0 0.0 0.0 0.00 0.00 0.00 59 1006.3
20260504180352 62 0 0.0 0.0 0.00 0.00 0.00 59 1006.3
20260504174851 63 0 0.0 0.0 0.00 0.00 0.00 58 1006.4
20260504173352 64 0 0.0 0.0 0.00 0.00 0.00 58 1006.5
20260504171848 64 0 0.0 0.0 0.00 0.00 0.00 57 1006.2
20260504170348 64 0 0.0 0.0 0.00 0.00 0.00 56 1006.2
20260504160351 65 0 0.0 0.0 0.00 0.00 0.00 55 1006.3
20260504150352 65 0 0.0 0.0 0.00 0.00 0.00 55 1006.8
20260504140351 65 0 0.0 0.0 0.00 0.00 0.00 57 1007.1
20260504130351 65 0 0.0 0.0 0.00 0.00 0.00 57 1007.1
20260504110351 65 0 0.0 0.0 0.00 0.00 0.00 59 1006.8
20260504100348 62 0 0.0 0.0 0.00 0.00 0.00 64 1006.7